When you browse on this site, cookies collect data to enhance your experience and personalize the content and advertising you see.
Visit our Privacy Policy to learn more. By continuing to use the site, you agree to this use of cookies and data.
  • In Hungary
  • List of Countries
  • For 7 days
  • Water Temperature
  • Satellite Maps
  • Weather Map
  • News
  • Weather Widgets
  • user-avatar
    Login

    Hourly Weather Bamako

    Today, 21 November, Wednesday

    Time Temperature Precipitation Wind Pressure Humidity
    00:00 +28°C° 0 mm 1 mps 725 mmHg 37%
    01:00 +28°C° 0 mm 1 mps 725 mmHg 39%
    02:00 +27°C° 0 mm 1 mps 724 mmHg 40%
    03:00 +27°C° 0 mm 1 mps 724 mmHg 41%
    04:00 +26°C° 0 mm 1 mps 724 mmHg 42%
    05:00 +26°C° 0 mm 1 mps 724 mmHg 42%
    06:00 +28°C° 0 mm 1 mps 725 mmHg 38%
    07:00 +30°C° 0 mm 2 mps 725 mmHg 34%
    08:00 +32°C° 0 mm 2 mps 726 mmHg 30%
    09:00 +34°C° 0 mm 2 mps 726 mmHg 27%
    10:00 +36°C° 0 mm 3 mps 726 mmHg 25%
    11:00 +38°C° 0 mm 3 mps 726 mmHg 22%
    12:00 +38°C° 0 mm 3 mps 725 mmHg 22%
    13:00 +39°C° 0 mm 2 mps 724 mmHg 21%
    14:00 +39°C° 0 mm 2 mps 724 mmHg 21%
    15:00 +37°C° 0 mm 1 mps 724 mmHg 22%
    16:00 +35°C° 0 mm 1 mps 724 mmHg 24%
    17:00 +34°C° 0 mm 1 mps 724 mmHg 26%
    18:00 +33°C° 0 mm 1 mps 724 mmHg 27%
    19:00 +31°C° 0 mm 0 mps 725 mmHg 28%
    20:00 +30°C° 0 mm 0 mps 725 mmHg 29%
    21:00 +30°C° 0 mm 0 mps 725 mmHg 29%
    22:00 +31°C° 0 mm 1 mps 725 mmHg 30%
    23:00 +31°C° 0 mm 1 mps 725 mmHg 30%

    Tomorrow, 22 November, Thursday

    Time Temperature Precipitation Wind Pressure Humidity
    00:00 +28°C° 0 mm 0 mps 725 mmHg 31%
    01:00 +27°C° 0 mm 0 mps 724 mmHg 32%
    02:00 +26°C° 0 mm 0 mps 724 mmHg 33%
    03:00 +26°C° 0 mm 0 mps 724 mmHg 33%
    04:00 +26°C° 0 mm 0 mps 724 mmHg 34%
    05:00 +27°C° 0 mm 1 mps 724 mmHg 34%
    06:00 +29°C° 0 mm 1 mps 724 mmHg 30%
    07:00 +31°C° 0 mm 1 mps 725 mmHg 26%
    08:00 +34°C° 0 mm 2 mps 726 mmHg 23%
    09:00 +35°C° 0 mm 2 mps 726 mmHg 20%
    10:00 +37°C° 0 mm 3 mps 726 mmHg 17%
    11:00 +38°C° 0 mm 4 mps 725 mmHg 14%
    12:00 +38°C° 0 mm 4 mps 725 mmHg 14%
    13:00 +40°C° 0 mm 4 mps 724 mmHg 14%
    14:00 +40°C° 0 mm 4 mps 723 mmHg 13%
    15:00 +37°C° 0 mm 4 mps 723 mmHg 15%
    16:00 +36°C° 0 mm 3 mps 723 mmHg 16%
    17:00 +34°C° 0 mm 2 mps 723 mmHg 17%
    18:00 +32°C° 0 mm 2 mps 723 mmHg 18%
    19:00 +31°C° 0 mm 2 mps 724 mmHg 19%
    20:00 +29°C° 0 mm 2 mps 724 mmHg 20%
    21:00 +29°C° 0 mm 2 mps 724 mmHg 20%
    22:00 +28°C° 0 mm 2 mps 724 mmHg 21%
    23:00 +27°C° 0 mm 2 mps 724 mmHg 22%

    Day after tomorrow, 23 November, Friday

    Time Temperature Precipitation Wind Pressure Humidity
    00:00 +27°C° 0 mm 2 mps 724 mmHg 23%
    01:00 +26°C° 0 mm 2 mps 723 mmHg 24%
    02:00 +26°C° 0 mm 2 mps 723 mmHg 24%
    03:00 +25°C° 0 mm 2 mps 723 mmHg 25%
    04:00 +25°C° 0 mm 2 mps 723 mmHg 25%
    05:00 +24°C° 0 mm 2 mps 723 mmHg 26%
    06:00 +26°C° 0 mm 2 mps 724 mmHg 23%
    07:00 +29°C° 0 mm 3 mps 724 mmHg 21%
    08:00 +31°C° 0 mm 3 mps 725 mmHg 18%
    09:00 +34°C° 0 mm 4 mps 725 mmHg 15%
    10:00 +37°C° 0 mm 4 mps 725 mmHg 11%
    11:00 +40°C° 0 mm 5 mps 725 mmHg 8%
    12:00 +41°C° 0 mm 4 mps 724 mmHg 8%
    13:00 +41°C° 0 mm 4 mps 723 mmHg 7%
    14:00 +41°C° 0 mm 4 mps 722 mmHg 7%
    15:00 +38°C° 0 mm 3 mps 722 mmHg 8%
    16:00 +36°C° 0 mm 2 mps 722 mmHg 9%
    17:00 +34°C° 0 mm 2 mps 722 mmHg 10%
    18:00 +32°C° 0 mm 1 mps 722 mmHg 11%
    19:00 +31°C° 0 mm 1 mps 723 mmHg 12%
    20:00 +29°C° 0 mm 1 mps 724 mmHg 12%
    21:00 +29°C° 0 mm 1 mps 724 mmHg 13%
    22:00 +28°C° 0 mm 1 mps 723 mmHg 13%
    23:00 +26°C° 0 mm 0 mps 723 mmHg 14%

    24 November, Saturday

    Time Temperature Precipitation Wind Pressure Humidity
    00:00 +25°C° 0 mm 0 mps 723 mmHg 14%
    01:00 +24°C° 0 mm 0 mps 722 mmHg 15%
    02:00 +24°C° 0 mm 0 mps 722 mmHg 15%
    03:00 +23°C° 0 mm 0 mps 722 mmHg 16%
    04:00 +23°C° 0 mm 0 mps 723 mmHg 16%
    05:00 +25°C° 0 mm 1 mps 723 mmHg 16%
    06:00 +27°C° 0 mm 1 mps 724 mmHg 15%
    07:00 +30°C° 0 mm 1 mps 724 mmHg 14%
    08:00 +32°C° 0 mm 1 mps 725 mmHg 12%
    09:00 +34°C° 0 mm 1 mps 725 mmHg 11%
    10:00 +36°C° 0 mm 1 mps 725 mmHg 10%
    11:00 +40°C° 0 mm 2 mps 724 mmHg 8%
    12:00 +40°C° 0 mm 2 mps 724 mmHg 8%
    13:00 +40°C° 0 mm 2 mps 723 mmHg 7%
    14:00 +41°C° 0 mm 2 mps 722 mmHg 7%
    15:00 +39°C° 0 mm 2 mps 722 mmHg 8%
    16:00 +37°C° 0 mm 2 mps 722 mmHg 10%
    17:00 +35°C° 0 mm 2 mps 722 mmHg 11%
    18:00 +33°C° 0 mm 1 mps 723 mmHg 12%
    19:00 +31°C° 0 mm 1 mps 723 mmHg 12%
    20:00 +30°C° 0 mm 1 mps 724 mmHg 13%
    21:00 +29°C° 0 mm 1 mps 724 mmHg 14%
    22:00 +29°C° 0 mm 1 mps 723 mmHg 14%
    23:00 +28°C° 0 mm 1 mps 723 mmHg 14%

    25 November, Sunday

    Time Temperature Precipitation Wind Pressure Humidity
    00:00 +25°C° 0 mm 0 mps 723 mmHg 15%
    01:00 +25°C° 0 mm 0 mps 722 mmHg 15%
    02:00 +24°C° 0 mm 0 mps 722 mmHg 15%
    03:00 +24°C° 0 mm 0 mps 722 mmHg 16%
    04:00 +25°C° 0 mm 1 mps 723 mmHg 16%
    05:00 +25°C° 0 mm 1 mps 723 mmHg 16%
    06:00 +27°C° 0 mm 1 mps 724 mmHg 15%
    07:00 +29°C° 0 mm 2 mps 724 mmHg 14%
    08:00 +31°C° 0 mm 2 mps 725 mmHg 12%
    09:00 +35°C° 0 mm 2 mps 725 mmHg 11%
    10:00 +37°C° 0 mm 3 mps 725 mmHg 10%
    11:00 +39°C° 0 mm 3 mps 724 mmHg 8%
    12:00 +40°C° 0 mm 3 mps 723 mmHg 8%
    13:00 +40°C° 0 mm 3 mps 723 mmHg 7%
    14:00 +40°C° 0 mm 3 mps 722 mmHg 7%
    15:00 +38°C° 0 mm 3 mps 722 mmHg 8%
    16:00 +36°C° 0 mm 2 mps 722 mmHg 9%
    17:00 +34°C° 0 mm 2 mps 722 mmHg 11%
    18:00 +32°C° 0 mm 2 mps 722 mmHg 11%
    19:00 +31°C° 0 mm 1 mps 723 mmHg 12%
    20:00 +29°C° 0 mm 1 mps 724 mmHg 12%
    21:00 +28°C° 0 mm 1 mps 723 mmHg 12%
    22:00 +28°C° 0 mm 2 mps 723 mmHg 12%
    23:00 +27°C° 0 mm 2 mps 723 mmHg 12%

    26 November, Monday

    Time Temperature Precipitation Wind Pressure Humidity
    00:00 +26°C° 0 mm 2 mps 723 mmHg 12%
    01:00 +25°C° 0 mm 2 mps 722 mmHg 12%
    02:00 +25°C° 0 mm 2 mps 722 mmHg 11%
    03:00 +24°C° 0 mm 2 mps 722 mmHg 12%
    04:00 +24°C° 0 mm 2 mps 722 mmHg 12%
    05:00 +24°C° 0 mm 2 mps 722 mmHg 12%
    06:00 +26°C° 0 mm 3 mps 723 mmHg 12%
    07:00 +28°C° 0 mm 4 mps 723 mmHg 11%
    08:00 +30°C° 0 mm 5 mps 724 mmHg 11%
    09:00 +34°C° 0 mm 5 mps 724 mmHg 9%
    10:00 +36°C° 0 mm 5 mps 723 mmHg 8%
    11:00 +40°C° 0 mm 5 mps 723 mmHg 6%
    12:00 +40°C° 0 mm 4 mps 722 mmHg 6%
    13:00 +41°C° 0 mm 4 mps 722 mmHg 6%
    14:00 +41°C° 0 mm 4 mps 721 mmHg 6%
    15:00 +38°C° 0 mm 3 mps 721 mmHg 8%
    16:00 +36°C° 0 mm 2 mps 721 mmHg 9%
    17:00 +34°C° 0 mm 2 mps 721 mmHg 10%
    18:00 +32°C° 0 mm 1 mps 722 mmHg 11%
    19:00 +31°C° 0 mm 1 mps 722 mmHg 11%
    20:00 +29°C° 0 mm 1 mps 723 mmHg 12%
    21:00 +29°C° 0 mm 1 mps 722 mmHg 12%
    22:00 +28°C° 0 mm 1 mps 722 mmHg 12%
    23:00 +27°C° 0 mm 1 mps 722 mmHg 13%
    Show more